Погода в Верхосунье

Россия / Кировская область     58°01′22″N   51°19′55″E
темп.,
°C
ветер,
м/с
пор.,
м/с
влажн.,
%
обл.,
%
осадки,
мм/ч
давл.,
гПа
погр.,
м
12 мая, ср
ср1200:00+12св34794 0.0 102960
03:00+11всв338628 0.0 103039
06:00+14в347989 0.0 1030174
09:00+19в336324 0.0 1030565
12:00+22вюв21511 0.0 10291166
15:00+24сз01430 0.0 10281540
18:00+22ссв22560 0.0 102737
21:00+17всв33660 0.0 102819
13 мая, чт
чт1300:00+15в22680 0.0 102814
03:00+14в33680 0.0 102820
06:00+17вюв23650 0.0 1028117
09:00+22юв33525 0.0 1027609
12:00+25ююв453896 0.0 10262463
15:00+25ю56335 0.0 10252417
18:00+22ю3753100 0.0 1024151
21:00+17ююз336284 0.0 102530
14 мая, пт
пт1400:00+16ю336393 0.0 102439
03:00+15ююв41059100 0.0 1024165
06:00+17ю51269100 0.1 1024363
09:00+21ю695441 0.3 1023578
12:00+24ююз683948 0.0 10221390
15:00+25юз684199 0.0 10211772
18:00+22ююз486346 0.0 1020231
21:00+18ююз41073100 0.0 1020184
15 мая, сб
сб1500:00+16ююз478025 0.0 1020115
03:00+14ююз48817 0.0 1020127
06:00+17ююз477328 0.0 1020221
09:00+22ююз6855100 0.0 1019639
12:00+25юз694577 0.0 10181013
15:00+26юз5104458 0.0 10171366
18:00+23ююз5115785 0.0 1017288
21:00+18ююз5136599 0.0 1017229
16 мая, вс
вс1600:00+16ююз412675 0.0 1017194
03:00+14ююз4116828 0.0 1017158
06:00+17ююз5116337 0.0 1017276
09:00+23ююз7114799 0.0 1016602
12:00+27ююз8133612 0.0 10152560
15:00+27ююз7134281 0.0 10142991
18:00+23ююз71454100 0.0 1013453
21:00+19юз51270100 0.0 1013254